"2009-12-09 00:00:00",1486366,7.061,51.56,2.726,0.736,-10.46,92.59335,-19.53,-18.12,81,0,108.4,14.13,-18.84,13.6
"2009-12-09 00:00:30",1486367,7.15,48.86,4.081,0.789,-10.51,92.5936,-19.53,-18.13,81,0,108.4,14.14,-18.84,10.9
"2009-12-09 00:01:00",1486368,7.495,48.91,3.373,0.588,-10.33,92.59328,-19.53,-18.1,81,0,108.4,14.14,-18.84,10.9
"2009-12-09 00:01:30",1486369,7.522,50.58,1.833,0.605,-10.34,92.59286,-19.53,-18.12,81,0,108.4,14.14,-18.85,12.6
"2009-12-09 00:02:00",1486370,7.533,51.2,3.805,0.484,-10.34,92.5895,-19.54,-18.13,80.9,0,108.4,14.14,-18.85,13.2
"2009-12-09 00:02:30",1486371,7.591,50.68,3.582,0.801,-10.37,92.58984,-19.54,-18.13,80.9,0,108.4,14.14,-18.85,12.7
"2009-12-09 00:03:00",1486372,8.08,49.06,3.06,0.644,-10.37,92.58848,-19.54,-18.14,80.9,0,108.5,14.14,-18.86,11.1
"2009-12-09 00:03:30",1486373,7.898,49.22,2.39,0.769,-10.43,92.58926,-19.54,-18.16,80.9,0,108.4,14.14,-18.85,11.2
"2009-12-09 00:04:00",1486374,7.858,51.38,3.832,0.642,-10.23,92.58874,-19.54,-18.15,80.9,0,108.4,14.14,-18.86,13.4
"2009-12-09 00:04:30",1486375,8.43,48.97,2.816,0.572,-10.42,92.59217,-19.53,-18.18,80.8,0,108.4,14.14,-18.85,11.0
"2009-12-09 00:05:00",1486376,8.29,48.84,3.311,0.638,-10.13,92.59269,-19.53,-18.15,80.8,0,108.4,14.14,-18.85,10.8
"2009-12-09 00:05:30",1486377,7.9,46.43,4.673,0.654,-10.21,92.5956,-19.52,-18.16,80.8,0,108.4,14.14,-18.84,8.4
"2009-12-09 00:06:00",1486378,8.3,49.13,3.17,0.697,-10.09,92.59639,-19.52,-18.15,80.8,0,108.4,14.14,-18.84,11.1
"2009-12-09 00:06:30",1486379,8.92,47.33,3.273,0.746,-9.98,92.59639,-19.52,-18.16,80.8,0,108.4,14.14,-18.84,9.3
"2009-12-09 00:07:00",1486380,8.86,51.03,2.622,0.638,-10.29,92.59956,-19.51,-18.19,80.7,0,108.4,14.14,-18.83,13.0
"2009-12-09 00:07:30",1486381,9.07,50.23,4.04,0.653,-9.89,92.59876,-19.51,-18.18,80.7,0,108.4,14.14,-18.83,12.2
"2009-12-09 00:08:00",1486382,8.34,45.02,3.618,1.013,-10.1,92.6014,-19.51,-18.17,80.7,0,108.4,14.14,-18.82,7.0
"2009-12-09 00:08:30",1486383,8.61,44.8,3.512,0.86,-9.88,92.60166,-19.51,-18.17,80.7,0,108.4,14.14,-18.82,6.8
"2009-12-09 00:09:00",1486384,8.83,45.81,4.609,1.022,-9.99,92.60219,-19.5,-18.19,80.6,0,108.4,14.14,-18.82,7.8
"2009-12-09 00:09:30",1486385,8.19,43.26,3.582,0.828,-9.88,92.60351,-19.5,-18.19,80.6,0,108.4,14.14,-18.82,5.3
"2009-12-09 00:10:00",1486386,8.54,45.86,2.168,1.056,-10.05,92.60535,-19.5,-18.2,80.6,0,108.4,14.14,-18.81,7.9
"2009-12-09 00:10:30",1486387,8.46,42.91,3.1,0.866,-10.04,92.60667,-19.49,-18.21,80.5,0,108.4,14.14,-18.81,4.9
"2009-12-09 00:11:00",1486388,8.35,42.58,3.726,0.875,-9.76,92.60588,-19.5,-18.2,80.5,0,108.4,14.14,-18.81,4.6
"2009-12-09 00:11:30",1486389,7.907,43.57,2.971,0.851,-10.01,92.60693,-19.49,-18.19,80.5,0,108.4,14.14,-18.81,5.6
"2009-12-09 00:12:00",1486390,7.918,42.58,3.823,1.119,-9.98,92.60641,-19.49,-18.18,80.4,0,108.3,14.14,-18.81,4.6
"2009-12-09 00:12:30",1486391,8.33,42.91,3.79,0.851,-10.01,92.60641,-19.49,-18.19,80.4,0,108.4,14.14,-18.81,4.9
"2009-12-09 00:13:00",1486392,8.29,42.99,3.415,0.985,-10.01,92.60641,-19.49,-18.16,80.4,0,108.4,14.14,-18.81,5.0
"2009-12-09 00:13:30",1486393,8.46,43.41,2.127,0.746,-10.11,92.60615,-19.49,-18.19,80.4,0,108.4,14.14,-18.81,5.4
"2009-12-09 00:14:00",1486394,8.95,44.56,3.919,1.021,-9.98,92.60698,-19.49,-18.19,80.4,0,108.4,14.14,-18.81,6.6
"2009-12-09 00:14:30",1486395,9.43,47.43,3.74,0.352,-10.01,92.60803,-19.49,-18.19,80.3,0,108.4,14.14,-18.81,9.4
"2009-12-09 00:15:00",1486396,8.92,45.68,2.36,0.857,-9.93,92.60803,-19.49,-18.18,80.3,0,108.4,14.14,-18.81,7.7
"2009-12-09 00:15:30",1486397,9.68,45.2,4.349,0.509,-9.73,92.60976,-19.49,-18.18,80.3,0,108.4,14.14,-18.80,7.2
"2009-12-09 00:16:00",1486398,9.29,45.83,1.695,0.843,-9.83,92.61145,-19.48,-18.17,80.3,0,108.4,14.14,-18.80,7.8
"2009-12-09 00:16:30",1486399,9.84,46.5,3.702,0.784,-9.58,92.61487,-19.47,-18.16,80.2,0,108.4,14.14,-18.79,8.5
"2009-12-09 00:17:00",1486400,10.06,46.87,2.983,0.752,-9.79,92.61515,-19.47,-18.19,80.2,0,108.4,14.14,-18.79,8.9
"2009-12-09 00:17:30",1486401,9.54,48.65,3.664,0.545,-9.68,92.616,-19.47,-18.17,80.1,0,108.4,14.14,-18.79,10.7
"2009-12-09 00:18:00",1486402,9.19,45.79,3.195,0.995,-9.71,92.616,-19.47,-18.17,80.1,0,108.4,14.14,-18.79,7.8
"2009-12-09 00:18:30",1486403,8.84,44.89,4.435,1.602,-9.45,92.616,-19.47,-18.15,80,0,108.4,14.14,-18.79,6.9
"2009-12-09 00:19:00",1486404,9.61,49.73,3.769,0.76,-9.73,92.616,-19.47,-18.18,80,0,108.4,14.14,-18.79,11.7
"2009-12-09 00:19:30",1486405,8.56,50.21,1.877,0.766,-9.86,92.616,-19.47,-18.15,79.98,0,108.4,14.14,-18.79,12.2
"2009-12-09 00:20:00",1486406,9.02,48.36,3.934,0.662,-9.69,92.61572,-19.47,-18.15,79.95,0,108.4,14.15,-18.79,10.4
"2009-12-09 00:20:30",1486407,8.49,47.68,2.5,0.894,-9.84,92.61515,-19.47,-18.16,79.96,0,108.4,14.15,-18.79,9.7
"2009-12-09 00:21:00",1486408,9.14,47.63,2.995,0.499,-9.85,92.61544,-19.47,-18.17,79.93,0,108.4,14.15,-18.79,9.6
"2009-12-09 00:21:30",1486409,8.38,45.61,3.153,0.676,-9.8,92.61544,-19.47,-18.16,79.92,0,108.4,14.15,-18.79,7.6
"2009-12-09 00:22:00",1486410,8.59,45.66,3.724,1.093,-9.7,92.61373,-19.48,-18.17,79.87,0,108.4,14.15,-18.79,7.7
"2009-12-09 00:22:30",1486411,8.41,47.35,2.782,0.993,-10.02,92.61259,-19.48,-18.16,79.83,0,108.4,14.15,-18.80,9.3
"2009-12-09 00:23:00",1486412,8.69,45.87,4.102,0.396,-9.71,92.6123,-19.48,-18.16,79.77,0,108.4,14.15,-18.80,7.9
"2009-12-09 00:23:30",1486413,8.22,47.98,3.241,0.803,-10.12,92.60803,-19.49,-18.15,79.73,0,108.4,14.15,-18.81,10.0
"2009-12-09 00:24:00",1486414,8.98,49.1,3.198,0.681,-10.1,92.60773,-19.49,-18.17,79.68,0,108.4,14.15,-18.81,11.1
"2009-12-09 00:24:30",1486415,9.11,47.67,4.495,0.422,-9.85,92.60746,-19.49,-18.16,79.66,0,108.4,14.15,-18.81,9.7
"2009-12-09 00:25:00",1486416,9.24,48.23,3.086,0.747,-9.98,92.60746,-19.49,-18.17,79.63,0,108.4,14.15,-18.81,10.2
"2009-12-09 00:25:30",1486417,8.77,47.54,3.202,0.591,-9.66,92.60746,-19.49,-18.18,79.58,0,108.4,14.15,-18.81,9.5
"2009-12-09 00:26:00",1486418,8.99,46.79,3.417,0.629,-9.79,92.60746,-19.49,-18.17,79.57,0,108.4,14.15,-18.81,8.8
"2009-12-09 00:26:30",1486419,9.59,45.88,2.872,0.779,-9.68,92.60799,-19.49,-18.16,79.49,0,108.4,14.15,-18.81,7.9
"2009-12-09 00:27:00",1486420,9.51,45.68,4.3,0.442,-9.53,92.60746,-19.49,-18.18,79.43,0,108.4,14.15,-18.81,7.7
"2009-12-09 00:27:30",1486421,9.43,46.63,3.693,0.61,-9.64,92.60799,-19.49,-18.18,79.33,0,108.4,14.15,-18.81,8.6
"2009-12-09 00:28:00",1486422,8.94,44.8,3.921,0.85,-9.55,92.60773,-19.49,-18.17,79.27,0,108.4,14.15,-18.81,6.8
"2009-12-09 00:28:30",1486423,9.57,45.78,3.138,0.587,-9.52,92.60773,-19.49,-18.17,79.15,0,108.4,14.15,-18.81,7.8
"2009-12-09 00:29:00",1486424,9.53,46.34,2.815,0.791,-9.71,92.60802,-19.49,-18.17,79.07,0,108.4,14.15,-18.81,8.3
"2009-12-09 00:29:30",1486425,9.49,46.27,4.213,0.728,-9.66,92.60859,-19.49,-18.19,78.98,0,108.4,14.15,-18.81,8.3
"2009-12-09 00:30:00",1486426,8.67,45.11,2.486,0.943,-9.73,92.61072,-19.48,-18.17,78.91,0,108.4,14.14,-18.80,7.1
"2009-12-09 00:30:30",1486427,8.93,44.73,3.08,0.675,-9.61,92.61283,-19.48,-18.18,78.81,0,108.4,14.14,-18.79,6.7
"2009-12-09 00:31:00",1486428,8.83,44.32,3.328,0.516,-9.45,92.61674,-19.47,-18.15,78.73,0,108.4,14.14,-18.78,6.3
"2009-12-09 00:31:30",1486429,8.4,42.82,4.013,0.737,-9.42,92.61759,-19.47,-18.16,78.66,0,108.4,14.14,-18.78,4.8
"2009-12-09 00:32:00",1486430,8.63,44.05,3.439,1.004,-9.8,92.61707,-19.47,-18.18,78.55,0,108.4,14.14,-18.78,6.0
"2009-12-09 00:32:30",1486431,8.47,43.1,3.029,0.748,-9.49,92.61893,-19.46,-18.14,78.49,0,108.4,14.14,-18.78,5.1
"2009-12-09 00:33:00",1486432,7.805,41.91,3.637,0.777,-9.69,92.61952,-19.46,-18.16,78.4,0,108.4,14.14,-18.78,3.9
"2009-12-09 00:33:30",1486433,7.266,40.94,2.565,0.708,-9.77,92.62804,-19.44,-18.14,78.33,0,108.4,14.14,-18.76,2.9
"2009-12-09 00:34:00",1486434,7.402,40.32,4.187,0.396,-9.68,92.63921,-19.41,-18.13,78.28,0,108.4,14.14,-18.73,2.3
"2009-12-09 00:34:30",1486435,7.228,40.42,3.656,0.616,-9.72,92.64223,-19.4,-18.12,78.21,0,108.4,14.14,-18.72,2.4
"2009-12-09 00:35:00",1486436,7.921,42.66,3.149,0.702,-9.76,92.6469,-19.39,-18.13,78.17,0,108.4,14.15,-18.71,4.7
"2009-12-09 00:35:30",1486437,7.595,39.8,2.306,0.493,-9.97,92.64614,-19.39,-18.14,78.12,0,108.4,14.15,-18.71,1.8
"2009-12-09 00:36:00",1486438,7.627,40.2,3.91,0.84,-9.65,92.64772,-19.39,-18.12,78.06,0,108.3,14.15,-18.71,2.2
"2009-12-09 00:36:30",1486439,7.009,39.86,3.433,0.673,-9.87,92.6464,-19.39,-18.12,78,0,108.4,14.15,-18.71,1.9
"2009-12-09 00:37:00",1486440,7.364,41.33,3.796,0.602,-9.9,92.64719,-19.39,-18.1,77.93,0,108.4,14.15,-18.71,3.3
"2009-12-09 00:37:30",1486441,8.17,43.68,2.786,0.69,-10.04,92.64666,-19.39,-18.09,77.89,0,108.4,14.15,-18.71,5.7
"2009-12-09 00:38:00",1486442,7.381,41.73,2.834,0.849,-9.9,92.64666,-19.39,-18.11,77.82,0,108.4,14.15,-18.71,3.7
"2009-12-09 00:38:30",1486443,7.356,40.57,4.464,0.716,-9.75,92.6464,-19.39,-18.1,77.74,0,108.4,14.15,-18.71,2.6
"2009-12-09 00:39:00",1486444,7.185,41.32,2.269,0.892,-9.88,92.64719,-19.39,-18.08,77.69,0,108.4,14.15,-18.71,3.3
"2009-12-09 00:39:30",1486445,7.017,39.67,3.762,0.501,-9.8,92.64746,-19.39,-18.08,77.57,0,108.4,14.15,-18.71,1.7
"2009-12-09 00:40:00",1486446,8.29,42.9,2.385,1.017,-10.07,92.64828,-19.39,-18.09,77.5,0,108.4,14.16,-18.70,4.9
"2009-12-09 00:40:30",1486447,7.691,40.8,4.37,0.925,-9.73,92.64748,-19.39,-18.08,77.38,0,108.4,14.16,-18.71,2.8
"2009-12-09 00:41:00",1486448,7.613,41.17,4.041,0.781,-9.79,92.65084,-19.38,-18.06,77.21,0,108.4,14.15,-18.70,3.2
"2009-12-09 00:41:30",1486449,7.48,41.58,3.832,0.597,-9.88,92.6517,-19.38,-18.09,77.09,0,108.3,14.15,-18.70,3.6
"2009-12-09 00:42:00",1486450,7.312,42.32,3.044,0.783,-9.96,92.6515,-19.38,-18.09,76.97,0,108.4,14.15,-18.70,4.3
"2009-12-09 00:42:30",1486451,7.204,41.8,3.769,0.826,-9.97,92.65303,-19.38,-18.08,76.88,0,108.4,14.15,-18.69,3.8
"2009-12-09 00:43:00",1486452,7.262,41.57,2.889,0.864,-10.13,92.65334,-19.37,-18.07,76.83,0,108.4,14.15,-18.69,3.6
"2009-12-09 00:43:30",1486453,8.12,44.04,4.232,0.806,-9.9,92.65305,-19.38,-18.07,76.74,0,108.4,14.15,-18.69,6.0
"2009-12-09 00:44:00",1486454,7.242,42.11,3.127,0.935,-9.98,92.65215,-19.38,-18.07,76.68,0,108.4,14.15,-18.69,4.1
"2009-12-09 00:44:30",1486455,6.743,41.94,2.215,0.754,-10.01,92.65105,-19.38,-18.07,76.6,0,108.4,14.15,-18.70,3.9
"2009-12-09 00:45:00",1486456,7.085,41.31,3.495,0.575,-9.94,92.65132,-19.38,-18.08,76.5,0,108.4,14.15,-18.70,3.3
"2009-12-09 00:45:30",1486457,7.083,41.91,3.466,0.758,-10,92.65185,-19.38,-18.06,76.41,0,108.4,14.16,-18.70,3.9
"2009-12-09 00:46:00",1486458,6.989,41.91,3.473,0.645,-9.87,92.64959,-19.38,-18.08,76.33,0,108.4,14.16,-18.70,3.9
"2009-12-09 00:46:30",1486459,6.556,40.93,3.595,0.61,-10.05,92.64964,-19.38,-18.06,76.27,0,108.4,14.16,-18.70,2.9
"2009-12-09 00:47:00",1486460,6.507,40.72,4.243,0.835,-10.17,92.64878,-19.39,-18.07,76.2,0,108.3,14.15,-18.70,2.7
"2009-12-09 00:47:30",1486461,6.793,42.71,2.959,0.684,-10.28,92.64957,-19.38,-18.09,76.14,0,108.3,14.15,-18.70,4.7
"2009-12-09 00:48:00",1486462,6.289,41.23,3.959,0.844,-10.08,92.64957,-19.38,-18.07,76.1,0,108.4,14.15,-18.70,3.2
"2009-12-09 00:48:30",1486463,6.96,44.16,3.524,0.65,-10.08,92.64957,-19.38,-18.06,76.04,0,108.4,14.15,-18.70,6.2
"2009-12-09 00:49:00",1486464,6.775,46.52,2.941,0.73,-10.3,92.64904,-19.39,-18.06,76,0,108.3,14.15,-18.70,8.5
"2009-12-09 00:49:30",1486465,7,46.63,3.631,0.68,-10.17,92.64957,-19.38,-18.08,75.94,0,108.4,14.15,-18.70,8.6
"2009-12-09 00:50:00",1486466,6.626,46.44,3.269,0.692,-10.26,92.64957,-19.38,-18.08,75.93,0,108.3,14.15,-18.70,8.4
"2009-12-09 00:50:30",1486467,5.885,45.43,2.97,0.845,-10.29,92.64931,-19.39,-18.07,75.9,0,108.4,14.15,-18.70,7.4
"2009-12-09 00:51:00",1486468,6.605,46.37,3.077,0.735,-10.21,92.64758,-19.39,-18.08,75.86,0,108.4,14.15,-18.71,8.4
"2009-12-09 00:51:30",1486469,6.186,45.02,4.012,0.698,-10.15,92.6433,-19.4,-18.07,75.85,0,108.3,14.15,-18.72,7.0
"2009-12-09 00:52:00",1486470,5.648,43.47,3.184,0.64,-10.29,92.63504,-19.42,-18.08,75.86,0,108.4,14.15,-18.74,5.5
"2009-12-09 00:52:30",1486471,6.273,43.84,3.56,0.856,-10.38,92.62592,-19.44,-18.07,75.82,0,108.3,14.16,-18.76,5.8
"2009-12-09 00:53:00",1486472,5.972,42.91,4.069,0.672,-10.28,92.62392,-19.45,-18.08,75.8,0,108.3,14.16,-18.77,4.9
"2009-12-09 00:53:30",1486473,6.023,46.93,1.892,0.775,-10.65,92.62336,-19.45,-18.11,75.79,0,108.4,14.16,-18.77,8.9
"2009-12-09 00:54:00",1486474,6.287,47.21,4.271,0.642,-10.51,92.61852,-19.46,-18.09,75.8,0,108.4,14.16,-18.78,9.2
"2009-12-09 00:54:30",1486475,6.048,48.39,3.616,0.565,-10.35,92.61567,-19.47,-18.08,75.78,0,108.4,14.16,-18.79,10.4
"2009-12-09 00:55:00",1486476,6.199,49.37,3.076,0.708,-10.68,92.61538,-19.47,-18.12,75.83,0,108.3,14.16,-18.79,11.4
"2009-12-09 00:55:30",1486477,6.646,47.16,3.828,0.511,-10.42,92.61538,-19.47,-18.12,75.8,0,108.4,14.16,-18.79,9.2
"2009-12-09 00:56:00",1486478,5.931,46.19,3.415,0.836,-10.66,92.61367,-19.48,-18.13,75.85,0,108.3,14.16,-18.79,8.2
"2009-12-09 00:56:30",1486479,5.74,44.61,4.152,0.869,-10.6,92.6054,-19.5,-18.12,75.84,0,108.3,14.16,-18.81,6.6
"2009-12-09 00:57:00",1486480,6.144,50.08,2.878,0.703,-10.7,92.59544,-19.52,-18.15,75.86,0,108.4,14.16,-18.84,12.1
"2009-12-09 00:57:30",1486481,6.099,46.29,2.996,0.627,-10.59,92.59002,-19.54,-18.14,75.87,0,108.3,14.16,-18.85,8.3
"2009-12-09 00:58:00",1486482,6.453,45.15,4.023,0.415,-10.47,92.58546,-19.55,-18.16,75.89,0,108.4,14.16,-18.86,7.2
"2009-12-09 00:58:30",1486483,5.845,46.89,2.208,0.745,-10.74,92.58119,-19.56,-18.16,75.94,0,108.3,14.16,-18.88,8.9
"2009-12-09 00:59:00",1486484,5.656,44.43,4.322,0.533,-10.45,92.58119,-19.56,-18.16,75.95,0,108.3,14.16,-18.88,6.4
"2009-12-09 00:59:30",1486485,5.405,45.26,3.305,0.851,-10.83,92.58119,-19.56,-18.17,75.98,0,108.4,14.16,-18.88,7.3
"2009-12-09 01:00:00",1486486,6.257,46.13,4.732,0.726,-10.78,92.58119,-19.56,-18.17,75.99,0,108.4,14.17,-18.88,8.1
"2009-12-09 01:00:30",1486487,5.357,41.36,4.28,0.777,-10.62,92.57692,-19.57,-18.19,76.01,0,108.3,14.17,-18.89,3.4
"2009-12-09 01:01:00",1486488,5.535,43.12,4.803,0.731,-10.57,92.5715,-19.58,-18.21,76.03,0,108.4,14.17,-18.90,5.1
"2009-12-09 01:01:30",1486489,5.288,43.24,4.955,0.901,-10.72,92.56239,-19.61,-18.22,76.04,0,108.3,14.17,-18.92,5.2
"2009-12-09 01:02:00",1486490,5.442,43.82,4.198,0.741,-10.73,92.5564,-19.62,-18.22,76.03,0,108.3,14.17,-18.94,5.8
"2009-12-09 01:02:30",1486491,4.891,42.68,3.675,0.726,-10.79,92.55412,-19.63,-18.22,76.04,0,108.3,14.17,-18.94,4.7
"2009-12-09 01:03:00",1486492,5.151,42.05,5.29,0.686,-10.71,92.55299,-19.63,-18.21,76.02,0,108.4,14.17,-18.95,4.0
"2009-12-09 01:03:30",1486493,5.344,45.33,3.302,0.864,-11.1,92.54843,-19.64,-18.24,76.06,0,108.3,14.17,-18.96,7.3
"2009-12-09 01:04:00",1486494,5.669,44.09,5.256,0.524,-10.81,92.547,-19.64,-18.23,76.04,0,108.3,14.17,-18.96,6.1
"2009-12-09 01:04:30",1486495,6.604,46.81,2.387,0.651,-11.04,92.547,-19.64,-18.27,76.06,0,108.3,14.17,-18.96,8.8
"2009-12-09 01:05:00",1486496,6.101,45.78,2.589,0.605,-10.79,92.54587,-19.65,-18.26,76.1,0,108.3,14.16,-18.96,7.8
"2009-12-09 01:05:30",1486497,6.795,47.09,4.298,0.715,-10.75,92.53874,-19.67,-18.27,76.11,0,108.3,14.16,-18.98,9.1
"2009-12-09 01:06:00",1486498,6.741,50.45,3.392,0.821,-10.69,92.53561,-19.67,-18.27,76.17,0,108.3,14.16,-18.99,12.5
"2009-12-09 01:06:30",1486499,6.316,51.62,6.576,0.56,-10.63,92.52991,-19.69,-18.29,76.18,0,108.3,14.16,-19.01,13.6
"2009-12-09 01:07:00",1486500,6.689,52.52,3.647,0.325,-10.4,92.52136,-19.71,-18.31,76.21,0,108.3,14.16,-19.03,14.5
"2009-12-09 01:07:30",1486501,8.06,50.76,3.473,0.699,-10.63,92.51852,-19.72,-18.29,76.29,0,108.3,14.16,-19.03,12.8
"2009-12-09 01:08:00",1486502,7.566,48.95,3.703,0.667,-10.24,92.51709,-19.72,-18.3,76.33,0,108.3,14.16,-19.04,11.0
"2009-12-09 01:08:30",1486503,6.526,44.46,4.171,0.948,-10.35,92.51819,-19.72,-18.31,76.4,0,108.4,14.16,-19.04,6.5
"2009-12-09 01:09:00",1486504,7.137,51.09,4.812,0.817,-10.42,92.51933,-19.71,-18.33,76.44,0,108.3,14.16,-19.03,13.1
"2009-12-09 01:09:30",1486505,6.527,50.08,4.475,0.685,-10.42,92.51624,-19.72,-18.32,76.5,0,108.3,14.16,-19.04,12.1
"2009-12-09 01:10:00",1486506,5.894,45.33,4.978,0.658,-10.22,92.51852,-19.72,-18.32,76.52,0,108.3,14.16,-19.03,7.3
"2009-12-09 01:10:30",1486507,6.735,47.59,4.604,0.486,-10.34,92.51678,-19.72,-18.31,76.58,0,108.3,14.17,-19.04,9.6
"2009-12-09 01:11:00",1486508,6.768,47.03,4.29,0.506,-10.4,92.51481,-19.73,-18.32,76.58,0,108.3,14.17,-19.04,9.0
"2009-12-09 01:11:30",1486509,6.075,48.56,3.547,0.644,-10.44,92.51334,-19.73,-18.33,76.62,0,108.3,14.17,-19.05,10.6
"2009-12-09 01:12:00",1486510,6.323,50.01,3.501,0.718,-10.6,92.51308,-19.73,-18.34,76.63,0,108.3,14.17,-19.05,12.0
"2009-12-09 01:12:30",1486511,7.157,51.3,3.586,0.774,-10.59,92.51334,-19.73,-18.33,76.62,0,108.3,14.17,-19.05,13.3
"2009-12-09 01:13:00",1486512,6.754,51.27,4.304,0.542,-10.54,92.51414,-19.73,-18.34,76.66,0,108.4,14.17,-19.05,13.3
"2009-12-09 01:13:30",1486513,6.485,50.18,4.796,0.856,-10.4,92.51387,-19.73,-18.33,76.71,0,108.3,14.17,-19.05,12.2
"2009-12-09 01:14:00",1486514,6.047,50,4.456,0.631,-10.73,92.5144,-19.73,-18.35,76.75,0,108.3,14.17,-19.04,12.0
"2009-12-09 01:14:30",1486515,6.106,50.06,4.353,0.715,-10.73,92.51387,-19.73,-18.33,76.79,0,108.3,14.17,-19.05,12.1
"2009-12-09 01:15:00",1486516,6.711,50.38,3.882,0.42,-10.57,92.51387,-19.73,-18.36,76.79,0,108.3,14.17,-19.05,12.4
"2009-12-09 01:15:30",1486517,6.388,54.18,7.231,0.693,-10.39,92.51466,-19.73,-18.34,76.8,0,108.3,14.17,-19.04,16.2
"2009-12-09 01:16:00",1486518,7.451,50.98,6.789,0.789,-10.56,92.51492,-19.73,-18.36,76.81,0,108.3,14.17,-19.04,13.0
"2009-12-09 01:16:30",1486519,8.67,41.89,4.202,0.956,-10.25,92.51572,-19.72,-18.38,76.82,0,108.3,14.17,-19.04,3.9
"2009-12-09 01:17:00",1486520,6.88,44.68,3.421,0.916,-10.22,92.51546,-19.72,-18.37,76.83,0,108.3,14.17,-19.04,6.7
"2009-12-09 01:17:30",1486521,6.703,57.85,6.902,0.878,-10.27,92.51835,-19.72,-18.36,76.83,0,108.3,14.17,-19.03,19.8
"2009-12-09 01:18:00",1486522,6.65,55.68,4.504,0.556,-10.34,92.51756,-19.72,-18.34,76.83,0,108.3,14.17,-19.04,17.7
"2009-12-09 01:18:30",1486523,7.315,53.23,4.692,0.485,-10.4,92.51809,-19.72,-18.38,76.87,0,108.3,14.17,-19.04,15.2
"2009-12-09 01:19:00",1486524,7.025,52.31,4.684,0.56,-10.2,92.51809,-19.72,-18.37,76.94,0,108.3,14.17,-19.04,14.3
"2009-12-09 01:19:30",1486525,6.602,45.67,5.467,0.732,-10.28,92.51965,-19.71,-18.34,76.99,0,108.3,14.17,-19.03,7.7
"2009-12-09 01:20:00",1486526,8.01,47.48,4.023,0.857,-10.31,92.51809,-19.72,-18.36,77.02,0,108.3,14.17,-19.04,9.5
"2009-12-09 01:20:30",1486527,6.785,42.66,5.882,0.976,-10.28,92.52046,-19.71,-18.39,76.98,0,108.3,14.17,-19.03,4.7
"2009-12-09 01:21:00",1486528,7.401,48.21,5.776,0.717,-10.08,92.52046,-19.71,-18.37,76.92,0,108.3,14.17,-19.03,10.2
"2009-12-09 01:21:30",1486529,7.506,54.09,6.583,0.556,-10.3,92.52205,-19.71,-18.37,76.86,0,108.4,14.17,-19.03,16.1
"2009-12-09 01:22:00",1486530,7.177,49.78,6.159,0.848,-10.45,92.5239,-19.7,-18.37,76.85,0,108.3,14.17,-19.02,11.8
"2009-12-09 01:22:30",1486531,6.342,42.52,5.012,0.749,-10.33,92.52151,-19.71,-18.37,76.87,0,108.3,14.17,-19.03,4.5
"2009-12-09 01:23:00",1486532,6.7,49.23,4.726,0.513,-10.33,92.52229,-19.71,-18.38,76.88,0,108.3,14.17,-19.02,11.2
"2009-12-09 01:23:30",1486533,6.298,46.97,5.224,0.871,-10.61,92.52281,-19.71,-18.37,76.89,0,108.3,14.17,-19.02,9.0
"2009-12-09 01:24:00",1486534,6.768,47.66,4.416,0.547,-10.33,92.52283,-19.71,-18.36,76.87,0,108.3,14.17,-19.02,9.7
"2009-12-09 01:24:30",1486535,5.66,42.1,4.26,0.663,-10.4,92.52328,-19.7,-18.37,76.82,0,108.3,14.17,-19.02,4.1
"2009-12-09 01:25:00",1486536,5.433,46.63,5.986,0.368,-10.46,92.51931,-19.71,-18.38,76.8,0,108.3,14.17,-19.03,8.6
"2009-12-09 01:25:30",1486537,5.826,52.53,4.813,0.379,-10.6,92.51804,-19.72,-18.38,76.76,0,108.4,14.17,-19.04,14.5
"2009-12-09 01:26:00",1486538,7.019,47.79,5.854,1.189,-10.66,92.51583,-19.72,-18.39,76.75,0,108.3,14.17,-19.04,9.8
"2009-12-09 01:26:30",1486539,8.02,49.71,4.061,0.723,-10.58,92.50945,-19.74,-18.38,76.73,0,108.3,14.17,-19.06,11.7
"2009-12-09 01:27:00",1486540,7.385,49.06,3.682,0.356,-10.39,92.504,-19.75,-18.4,76.69,0,108.3,14.17,-19.07,11.1
"2009-12-09 01:27:30",1486541,6.364,51.61,6.916,0.74,-10.49,92.50117,-19.76,-18.38,76.64,0,108.4,14.17,-19.08,13.6
"2009-12-09 01:28:00",1486542,6.31,49.27,3.771,0.526,-10.54,92.50002,-19.76,-18.38,76.63,0,108.3,14.17,-19.08,11.3
"2009-12-09 01:28:30",1486543,5.639,47.31,5.651,0.87,-10.61,92.49972,-19.76,-18.4,76.62,0,108.3,14.17,-19.08,9.3
"2009-12-09 01:29:00",1486544,6.083,43.51,4.182,0.931,-10.46,92.50106,-19.76,-18.42,76.64,0,108.3,14.17,-19.08,5.5
"2009-12-09 01:29:30",1486545,5.077,41.89,5.455,0.818,-10.6,92.5011,-19.76,-18.4,76.62,0,108.3,14.17,-19.08,3.9
"2009-12-09 01:30:00",1486546,5.752,47.72,5.057,0.897,-10.74,92.49625,-19.77,-18.41,76.63,0,108.3,14.17,-19.09,9.7
"2009-12-09 01:30:30",1486547,6.754,54.39,3.197,0.651,-10.97,92.49395,-19.78,-18.41,76.61,0,108.3,14.17,-19.10,16.4
"2009-12-09 01:31:00",1486548,6.65,56.01,4.355,0.702,-10.71,92.49339,-19.78,-18.42,76.62,0,108.3,14.17,-19.10,18.0
"2009-12-09 01:31:30",1486549,7.355,56.01,4.799,0.584,-10.8,92.49418,-19.78,-18.42,76.64,0,108.3,14.17,-19.10,18.0
"2009-12-09 01:32:00",1486550,6.794,45.52,7.31,0.835,-10.55,92.49365,-19.78,-18.41,76.72,0,108.3,14.18,-19.10,7.5
"2009-12-09 01:32:30",1486551,7.162,51.02,6.162,0.566,-10.56,92.49391,-19.78,-18.42,76.76,0,108.3,14.18,-19.10,13.0
"2009-12-09 01:33:00",1486552,6.706,60.01,5.229,0.62,-10.21,92.49444,-19.78,-18.42,76.77,0,108.3,14.18,-19.10,22.0
"2009-12-09 01:33:30",1486553,6.794,50,4.464,1.002,-10.42,92.49418,-19.78,-18.43,76.82,0,108.3,14.18,-19.10,12.0
"2009-12-09 01:34:00",1486554,6.93,44.74,4.291,1.117,-10.45,92.49416,-19.78,-18.43,76.88,0,108.3,14.18,-19.10,6.7
"2009-12-09 01:34:30",1486555,5.316,36.04,6.057,0.838,-10.5,92.49326,-19.78,-18.43,76.9,0,108.3,14.18,-19.10,358.0
"2009-12-09 01:35:00",1486556,5.05,45.33,6.465,0.791,-10.54,92.49356,-19.78,-18.45,76.89,0,108.3,14.18,-19.10,7.3
"2009-12-09 01:35:30",1486557,5.412,40.58,7.199,0.984,-10.7,92.49385,-19.78,-18.44,76.8,0,108.3,14.18,-19.10,2.6
"2009-12-09 01:36:00",1486558,6.268,52.15,4.108,0.748,-10.89,92.49046,-19.79,-18.42,76.73,0,108.3,14.18,-19.11,14.2
"2009-12-09 01:36:30",1486559,5.369,55.16,9.18,0.696,-10.66,92.4873,-19.8,-18.44,76.67,0,108.3,14.18,-19.11,17.2
"2009-12-09 01:37:00",1486560,5.787,51.17,4.874,0.425,-10.7,92.48133,-19.81,-18.44,76.68,0,108.3,14.18,-19.13,13.2
"2009-12-09 01:37:30",1486561,5.129,45.95,6.681,0.595,-10.95,92.47761,-19.82,-18.45,76.67,0,108.4,14.18,-19.14,8.0
"2009-12-09 01:38:00",1486562,5.25,49.78,5.642,0.774,-11.12,92.47475,-19.83,-18.45,76.72,0,108.3,14.18,-19.15,11.8
"2009-12-09 01:38:30",1486563,5.916,49.98,3.142,0.843,-11.2,92.46792,-19.84,-18.45,76.71,0,108.3,14.18,-19.16,12.0
"2009-12-09 01:39:00",1486564,6.746,52.5,3.583,0.778,-11.05,92.46249,-19.86,-18.48,76.72,0,108.3,14.18,-19.18,14.5
"2009-12-09 01:39:30",1486565,8.09,52.4,3.632,0.568,-10.86,92.46134,-19.86,-18.46,76.71,0,108.4,14.18,-19.18,14.4
"2009-12-09 01:40:00",1486566,7.21,51.63,4.323,0.901,-10.78,92.46104,-19.86,-18.47,76.74,0,108.3,14.17,-19.18,13.6
"2009-12-09 01:40:30",1486567,6.864,50.36,3.584,1.024,-10.79,92.46104,-19.86,-18.49,76.75,0,108.3,14.17,-19.18,12.4
"2009-12-09 01:41:00",1486568,7.401,50,4.351,0.594,-10.37,92.46156,-19.86,-18.47,76.79,0,108.3,14.17,-19.18,12.0
"2009-12-09 01:41:30",1486569,7.467,49.53,4.181,0.674,-10.55,92.46182,-19.86,-18.49,76.83,0,108.3,14.17,-19.18,11.5
"2009-12-09 01:42:00",1486570,6.799,52.08,5.871,0.742,-10.34,92.46236,-19.86,-18.46,76.84,0,108.3,14.17,-19.18,14.1
"2009-12-09 01:42:30",1486571,6.273,53.61,4.594,0.531,-10.44,92.46182,-19.86,-18.48,76.86,0,108.3,14.17,-19.18,15.6
"2009-12-09 01:43:00",1486572,6.268,61.22,5.57,0.551,-10.51,92.46367,-19.86,-18.5,76.89,0,108.3,14.17,-19.17,23.2
"2009-12-09 01:43:30",1486573,6.908,57.52,4.285,0.438,-10.57,92.46236,-19.86,-18.5,76.95,0,108.3,14.17,-19.18,19.5
"2009-12-09 01:44:00",1486574,6.384,52.91,3.294,0.659,-10.82,92.4642,-19.85,-18.49,77.02,0,108.3,14.17,-19.17,14.9
"2009-12-09 01:44:30",1486575,6.055,52.12,2.844,0.664,-10.65,92.46314,-19.86,-18.51,77.09,0,108.3,14.17,-19.18,14.1
"2009-12-09 01:45:00",1486576,5.905,56.07,4.515,0.792,-10.65,92.46367,-19.86,-18.51,77.16,0,108.3,14.17,-19.17,18.1